Back to catalog

SL-8 R/B

AliveLEO
NORAD 12150·ROCKET BODY·🇷🇺 Russia

Launched Jan 21, 1981 from Plesetsk Cosmodrome

Loading…

Next Passes (next 24 hours)

TLE

FreshSource: Space-Track

Epoch: Sep 14, 2026, 14:28 UTC

1 12150U 81006B   26257.60319075 -.00000012  00000-0  69284-4 0  9994
2 12150  65.8225 335.1320 0055067 337.1226  22.7385 13.77488903293857

Track SL-8 R/B in real time with AllMySat

Download on the App Store